Hourly Weather Allenjoie

Today, 5 March, Friday

Time Temperature Precipitation Wind Pressure Humidity
00:00 +6°C° 0 mm 1 mps 732 mmHg 95%
01:00 +6°C° 0 mm 1 mps 732 mmHg 95%
02:00 +6°C° 0 mm 1 mps 732 mmHg 95%
03:00 +6°C° 0 mm 1 mps 732 mmHg 95%
04:00 +6°C° 0 mm 1 mps 732 mmHg 95%
05:00 +5°C° 0 mm 1 mps 732 mmHg 95%
06:00 +5°C° 0 mm 1 mps 732 mmHg 96%
07:00 +6°C° 0.1 mm 1 mps 733 mmHg 94%
08:00 +6°C° 0.1 mm 1 mps 733 mmHg 93%
09:00 +5°C° 0.1 mm 2 mps 733 mmHg 92%
10:00 +5°C° 0.1 mm 2 mps 733 mmHg 91%
11:00 +4°C° 0.1 mm 3 mps 733 mmHg 90%
12:00 +3°C° 0.1 mm 3 mps 733 mmHg 90%
13:00 +4°C° 0 mm 3 mps 733 mmHg 86%
14:00 +4°C° 0 mm 3 mps 733 mmHg 82%
15:00 +5°C° 0 mm 4 mps 734 mmHg 78%
16:00 +4°C° 0 mm 3 mps 734 mmHg 81%
17:00 +3°C° 0 mm 3 mps 734 mmHg 84%
18:00 +2°C° 0 mm 3 mps 734 mmHg 88%
19:00 +2°C° 0.1 mm 3 mps 735 mmHg 88%
20:00 +1°C° 0.1 mm 4 mps 736 mmHg 89%
21:00 +1°C° 0.1 mm 4 mps 736 mmHg 89%
22:00 0°C° 0 mm 4 mps 736 mmHg 89%
23:00 0°C° 0 mm 4 mps 736 mmHg 89%

Tomorrow, 6 March, Saturday

Time Temperature Precipitation Wind Pressure Humidity
00:00 -1°C° 0 mm 4 mps 736 mmHg 90%
01:00 -1°C° 0 mm 4 mps 736 mmHg 89%
02:00 -2°C° 0 mm 4 mps 736 mmHg 88%
03:00 -1°C° 0 mm 3 mps 736 mmHg 87%
04:00 -2°C° 0 mm 3 mps 736 mmHg 87%
05:00 -2°C° 0 mm 3 mps 736 mmHg 86%
06:00 -2°C° 0 mm 3 mps 737 mmHg 86%
07:00 -1°C° 0 mm 3 mps 737 mmHg 80%
08:00 -1°C° 0 mm 4 mps 737 mmHg 75%
09:00 0°C° 0 mm 4 mps 737 mmHg 69%
10:00 +3°C° 0 mm 4 mps 737 mmHg 65%
11:00 +4°C° 0 mm 4 mps 737 mmHg 60%
12:00 +5°C° 0 mm 4 mps 737 mmHg 56%
13:00 +6°C° 0 mm 4 mps 737 mmHg 55%
14:00 +6°C° 0 mm 4 mps 737 mmHg 54%
15:00 +6°C° 0 mm 4 mps 736 mmHg 53%
16:00 +5°C° 0 mm 3 mps 736 mmHg 57%
17:00 +3°C° 0 mm 3 mps 736 mmHg 61%
18:00 +3°C° 0 mm 2 mps 736 mmHg 65%
19:00 +2°C° 0 mm 2 mps 736 mmHg 66%
20:00 +2°C° 0 mm 2 mps 737 mmHg 67%
21:00 +2°C° 0 mm 2 mps 737 mmHg 68%
22:00 +1°C° 0 mm 2 mps 736 mmHg 70%
23:00 +1°C° 0 mm 2 mps 736 mmHg 71%

Day after tomorrow, 7 March, Sunday

Time Temperature Precipitation Wind Pressure Humidity
00:00 +1°C° 0 mm 2 mps 736 mmHg 72%
01:00 +1°C° 0 mm 2 mps 736 mmHg 73%
02:00 +2°C° 0 mm 1 mps 736 mmHg 73%
03:00 +2°C° 0 mm 1 mps 735 mmHg 74%
04:00 +2°C° 0 mm 1 mps 735 mmHg 73%
05:00 +3°C° 0 mm 1 mps 735 mmHg 73%
06:00 +3°C° 0 mm 1 mps 735 mmHg 73%
07:00 +4°C° 0 mm 1 mps 735 mmHg 71%
08:00 +6°C° 0 mm 1 mps 735 mmHg 70%
09:00 +7°C° 0 mm 1 mps 735 mmHg 69%
10:00 +7°C° 0.1 mm 1 mps 734 mmHg 71%
11:00 +8°C° 0.1 mm 1 mps 734 mmHg 73%
12:00 +8°C° 0.1 mm 1 mps 734 mmHg 75%
13:00 +9°C° 0.1 mm 1 mps 733 mmHg 75%
14:00 +10°C° 0.1 mm 1 mps 732 mmHg 74%
15:00 +10°C° 0.1 mm 1 mps 732 mmHg 74%
16:00 +9°C° 0 mm 1 mps 732 mmHg 79%
17:00 +8°C° 0 mm 1 mps 732 mmHg 83%
18:00 +7°C° 0 mm 1 mps 732 mmHg 88%
19:00 +5°C° 0 mm 0 mps 732 mmHg 89%
20:00 +4°C° 0 mm 0 mps 732 mmHg 90%
21:00 +4°C° 0 mm 0 mps 732 mmHg 90%
22:00 +3°C° 0 mm 0 mps 732 mmHg 90%
23:00 +3°C° 0 mm 0 mps 732 mmHg 90%

8 March, Monday

Time Temperature Precipitation Wind Pressure Humidity
00:00 +4°C° 0 mm 1 mps 732 mmHg 89%
01:00 +4°C° 0 mm 1 mps 732 mmHg 88%
02:00 +4°C° 0 mm 1 mps 732 mmHg 86%
03:00 +4°C° 0 mm 1 mps 732 mmHg 84%
04:00 +3°C° 0 mm 1 mps 732 mmHg 83%
05:00 +2°C° 0 mm 1 mps 732 mmHg 82%
06:00 -1°C° 0 mm 2 mps 732 mmHg 81%
07:00 +2°C° 0 mm 2 mps 732 mmHg 76%
08:00 +3°C° 0 mm 2 mps 732 mmHg 71%
09:00 +4°C° 0 mm 2 mps 732 mmHg 67%
10:00 +4°C° 0 mm 3 mps 732 mmHg 64%
11:00 +5°C° 0 mm 3 mps 732 mmHg 61%
12:00 +7°C° 0 mm 3 mps 732 mmHg 58%
13:00 +7°C° 0 mm 3 mps 732 mmHg 57%
14:00 +7°C° 0 mm 3 mps 732 mmHg 56%
15:00 +7°C° 0 mm 3 mps 731 mmHg 55%
16:00 +5°C° 0 mm 3 mps 732 mmHg 61%
17:00 +4°C° 0 mm 2 mps 732 mmHg 67%
18:00 +2°C° 0 mm 2 mps 732 mmHg 74%
19:00 +2°C° 0 mm 2 mps 732 mmHg 74%
20:00 +2°C° 0 mm 2 mps 733 mmHg 75%
21:00 +1°C° 0 mm 2 mps 733 mmHg 75%
22:00 +1°C° 0 mm 2 mps 733 mmHg 77%
23:00 -1°C° 0 mm 2 mps 733 mmHg 79%

9 March, Tuesday

Time Temperature Precipitation Wind Pressure Humidity
00:00 -1°C° 0 mm 2 mps 733 mmHg 81%
01:00 -1°C° 0 mm 2 mps 733 mmHg 82%
02:00 -1°C° 0 mm 2 mps 733 mmHg 83%
03:00 -1°C° 0 mm 2 mps 733 mmHg 83%
04:00 -1°C° 0 mm 2 mps 733 mmHg 84%
05:00 -1°C° 0 mm 2 mps 733 mmHg 84%
06:00 -2°C° 0 mm 2 mps 733 mmHg 84%
07:00 +1°C° 0 mm 2 mps 733 mmHg 76%
08:00 +3°C° 0 mm 2 mps 733 mmHg 68%
09:00 +5°C° 0 mm 2 mps 734 mmHg 60%
10:00 +5°C° 0 mm 3 mps 733 mmHg 56%
11:00 +7°C° 0 mm 3 mps 733 mmHg 53%
12:00 +8°C° 0 mm 3 mps 733 mmHg 49%
13:00 +8°C° 0 mm 3 mps 733 mmHg 50%
14:00 +9°C° 0 mm 2 mps 733 mmHg 51%
15:00 +9°C° 0 mm 2 mps 733 mmHg 52%
16:00 +7°C° 0 mm 2 mps 733 mmHg 60%
17:00 +5°C° 0 mm 2 mps 733 mmHg 69%
18:00 +4°C° 0 mm 1 mps 733 mmHg 77%
19:00 +4°C° 0 mm 1 mps 733 mmHg 78%
20:00 +3°C° 0 mm 1 mps 734 mmHg 79%
21:00 +3°C° 0 mm 1 mps 734 mmHg 80%
22:00 +3°C° 0 mm 1 mps 734 mmHg 80%
23:00 +2°C° 0 mm 1 mps 734 mmHg 80%

10 March, Wednesday

Time Temperature Precipitation Wind Pressure Humidity
00:00 +1°C° 0 mm 0 mps 733 mmHg 80%
01:00 +2°C° 0 mm 1 mps 733 mmHg 79%
02:00 +2°C° 0 mm 1 mps 733 mmHg 77%
03:00 +2°C° 0 mm 1 mps 733 mmHg 76%
04:00 +2°C° 0 mm 1 mps 733 mmHg 76%
05:00 +2°C° 0 mm 1 mps 734 mmHg 76%
06:00 +2°C° 0 mm 1 mps 734 mmHg 75%
07:00 +3°C° 0 mm 2 mps 734 mmHg 70%
08:00 +5°C° 0 mm 2 mps 734 mmHg 65%
09:00 +5°C° 0 mm 3 mps 733 mmHg 59%
10:00 +7°C° 0 mm 3 mps 733 mmHg 58%
11:00 +7°C° 0 mm 4 mps 733 mmHg 56%
12:00 +8°C° 0 mm 5 mps 733 mmHg 54%
13:00 +8°C° 0 mm 5 mps 732 mmHg 55%
14:00 +8°C° 0 mm 5 mps 732 mmHg 55%
15:00 +8°C° 0 mm 5 mps 732 mmHg 55%
16:00 +7°C° 0.1 mm 5 mps 732 mmHg 60%
17:00 +6°C° 0.1 mm 4 mps 732 mmHg 64%
18:00 +5°C° 0.1 mm 3 mps 731 mmHg 69%
19:00 +5°C° 0.2 mm 3 mps 732 mmHg 72%
20:00 +5°C° 0.2 mm 4 mps 732 mmHg 75%
21:00 +5°C° 0.2 mm 4 mps 732 mmHg 79%
22:00 +6°C° 0.1 mm 4 mps 731 mmHg 79%
23:00 +6°C° 0.1 mm 4 mps 731 mmHg 79%
Show more